Location: Trout Lake
(45.9980°N, 121.5270°W)
Time: 18:40:22
(UTC-07:00)

Cosmos 1627 Rocket - Pass Details

Date: 06 December 2023
Orbit: 950 x 1002 km, 82.9° (Epoch: 11 September)

Event Time Altitude Azimuth Distance (km) Brightness Sun altitude
Rises 17:57:19 0° 180° (S) 3,667 7.7 -16.0°
Reaches altitude 10° 17:59:48 10° 179° (S) 2,731 7.0 -16.4°
Maximum altitude 18:06:03 75° 96° (E) 1,028 4.4 -17.5°
Drops below altitude 10° 18:12:26 10° 12° (NNE) 2,779 6.6 -18.6°
Sets 18:14:59 0° 11° (N) 3,736 7.3 -19.0°
